logo meteoemiliaromagna

Diretta Meteo Praha-Ruzyne, Repubblica Cecalunedì 22 luglio ore 09:30

Mappa
Sereno 24 °C Poco Nuvoloso 24 Ore: T.min 19 T.max 31
Ponente Nord-Ovest Km/h 18.5 Punto di rugiada: 17 °C Umidità: 64% Visibilità: 10 Km
Il sole sorge alle: 05:17 Il sole tramonta alle: 21:01
22 Luglio 2024 09:30 tempo osservato: Poco Nuvoloso Poco Nuvoloso 24 64 1014 vento: Nord NO 18.5
22 Luglio 2024 09:00 tempo osservato: Poco Nuvoloso Poco Nuvoloso 23 68 1014 vento: Nord NO 16.7
22 Luglio 2024 08:30 tempo osservato: Sereno Sereno 23 68 1013 vento: Nord NO 14.8
22 Luglio 2024 08:00 tempo osservato: Sereno Sereno 22 73 1013 vento: Nord O/NO 13
22 Luglio 2024 07:30 tempo osservato: Sereno Sereno 21 73 1012 vento: Nord O 13
22 Luglio 2024 07:00 tempo osservato: Sereno Sereno 21 73 1012 vento: Nord O 14.8
22 Luglio 2024 06:30 tempo osservato: Sereno Sereno 20 77 1012 vento: Nord O/SO 16.7
22 Luglio 2024 06:00 tempo osservato: Sereno Sereno 20 77 1012 vento: Nord O/SO 16.7
22 Luglio 2024 05:30 tempo osservato: Sereno Sereno 19 77 1011 vento: Nord SO 13
22 Luglio 2024 05:00 tempo osservato: Sereno Sereno 19 72 1011 vento: Nord N 5.5
22 Luglio 2024 04:30 tempo osservato: Sereno Sereno 20 68 1011 vento: Nord O 9.3
22 Luglio 2024 04:00 tempo osservato: Sereno Sereno 20 68 1011 vento: Nord O/NO 7.4
22 Luglio 2024 03:30 tempo osservato: Sereno Sereno 21 68 1011 vento: Nord O/NO 7.4
22 Luglio 2024 03:00 tempo osservato: Sereno Sereno 21 68 1010 vento: Nord N 1.8
22 Luglio 2024 02:30 tempo osservato: Sereno Sereno 22 60 1011 vento: Nord N 5.5
22 Luglio 2024 02:00 tempo osservato: Sereno Sereno 23 53 1010 vento: Nord N 7.4
22 Luglio 2024 01:30 tempo osservato: Sereno Sereno 23 56 1010 vento: Nord S/SE 7.4
22 Luglio 2024 01:00 tempo osservato: Sereno Sereno 24 50 1011 vento: Nord SE 7.4
22 Luglio 2024 00:30 tempo osservato: Sereno Sereno 22 56 1010 vento: Nord N 5.5
22 Luglio 2024 00:00 tempo osservato: Poco Nuvoloso Poco Nuvoloso 23 56 1010 vento: Nord SE 9.3
21 Luglio 2024 23:30 tempo osservato: Poco Nuvoloso Poco Nuvoloso 24 53 1010 vento: Nord E/SE 11.1
21 Luglio 2024 23:00 tempo osservato: Temporale nelle vicinanze Temporale nelle vicinanze 24 50 1010 vento: Nord E/NE 13
21 Luglio 2024 22:30 tempo osservato: Poco Nuvoloso Poco Nuvoloso 24 50 1010 vento: Nord N 9.3
21 Luglio 2024 22:00 tempo osservato: Poco Nuvoloso Poco Nuvoloso 25 44 1010 vento: Nord S/SE 11.1
21 Luglio 2024 21:30 tempo osservato: Poco Nuvoloso Poco Nuvoloso 24 47 1010 vento: Nord E/SE 13
21 Luglio 2024 21:00 tempo osservato: Sereno Sereno 26 41 1009 vento: Nord E/SE 13
21 Luglio 2024 20:30 tempo osservato: Sereno Sereno 27 39 1009 vento: Nord E/SE 13
21 Luglio 2024 20:00 tempo osservato: Sereno Sereno 28 39 1009 vento: Nord E 14.8
21 Luglio 2024 19:30 tempo osservato: Sereno Sereno 29 37 1009 vento: Nord E 18.5
21 Luglio 2024 19:00 tempo osservato: Sereno Sereno 29 37 1009 vento: Nord E/NE 13
21 Luglio 2024 18:30 tempo osservato: Sereno Sereno 30 33 1009 vento: Nord E 14.8
21 Luglio 2024 18:00 tempo osservato: Sereno Sereno 30 35 1009 vento: Nord E/NE 16.7
21 Luglio 2024 17:30 tempo osservato: Sereno Sereno 30 35 1009 vento: Nord E 14.8
21 Luglio 2024 17:00 tempo osservato: Sereno Sereno 30 35 1009 vento: Nord SE 9.3
21 Luglio 2024 16:30 tempo osservato: Sereno Sereno 30 35 1009 vento: Nord N 7.4
21 Luglio 2024 16:00 tempo osservato: Sereno Sereno 31 33 1009 vento: Nord N 9.3
21 Luglio 2024 15:30 tempo osservato: Sereno Sereno 30 35 1009 vento: Nord N 9.3
21 Luglio 2024 15:00 tempo osservato: Sereno Sereno 31 35 1009 vento: Nord N 9.3
21 Luglio 2024 14:30 tempo osservato: Sereno Sereno 29 37 1009 vento: Nord N 7.4
21 Luglio 2024 14:00 tempo osservato: Sereno Sereno 28 39 1009 vento: Nord N/NE 9.3
21 Luglio 2024 13:30 tempo osservato: Sereno Sereno 29 37 1009 vento: Nord N 7.4
21 Luglio 2024 13:00 tempo osservato: Sereno Sereno 29 39 1010 vento: Nord E 13
21 Luglio 2024 12:30 tempo osservato: Sereno Sereno 29 37 1010 vento: Nord N 7.4
21 Luglio 2024 12:00 tempo osservato: Sereno Sereno 28 42 1010 vento: Nord N 5.5
21 Luglio 2024 11:30 tempo osservato: Sereno Sereno 27 42 1010 vento: Nord N 5.5
21 Luglio 2024 11:00 tempo osservato: Sereno Sereno 27 39 1010 vento: Nord N 3.7